Weather History for Emporia, VA

Change the Weather History Date:

Sunday, February 24, 2013

  Actual Average Record
Temperature  
Mean Temperature 44 °F -  
Max Temperature 53 °F 55 °F 78 °F (2012)
Min Temperature 35 °F 31 °F 19 °F (2009)
Degree Days  
Heating Degree Days 21    
Moisture  
Dew Point 40 °F    
Average Humidity 89    
Maximum Humidity 100    
Minimum Humidity 57    
Precipitation  
Precipitation 0.06 in - - ()
Sea Level Pressure  
Sea Level Pressure 29.92 in    
Wind  
Wind Speed 3 mph (NW)    
Max Wind Speed 14 mph    
Max Gust Speed 21 mph    
Visibility 7 miles    
Events Rain    
Averages and records for this station are not official NWS values.
T = Trace of Precipitation, MM = Missing Value Source: NWS Daily Summary

Daily Weather History Graph

Daily Weather History Graph

Search for Another Location

Airport:

Trip Planner

Search our weather history database for the weather conditions in past years. The results will help you decide how hot, cold, wet, or windy it might be!

Date:

Astronomy

Feb. 24, 2013 Rise Set
Actual Time 6:46 AM EST 5:59 PM EST
Civil Twilight 6:20 AM EST 6:25 PM EST
Nautical Twilight 5:50 AM EST 6:55 PM EST
Astronomical Twilight 5:20 AM EST 7:25 PM EST
Moon 5:08 PM EST (2/24) 5:42 AM EST (2/24)
Length of Visible Light 12h 05m
Length of Day
11h 12m
Waxing Gibbous, 99% of the Moon is Illuminated
Feb 24
Waxing Gibbous
Feb 25
Full
Mar 4
Last Quarter
Mar 11
New
Mar 19
First Quarter

Hourly Weather History & Observations

Time (EST) Temp. Windchill Dew Point Humidity Pressure Visibility Wind Dir Wind Speed Gust Speed Precip Events Conditions
12:15 AM 41.0 °F - 41.0 °F 100% 29.84 in 2.0 mi Calm Calm - N/A   Overcast
12:35 AM 41.0 °F - 41.0 °F 100% 29.85 in 1.5 mi Calm Calm - N/A   Overcast
12:55 AM 41.0 °F - 41.0 °F 100% 29.84 in 3.0 mi Calm Calm - N/A   Overcast
1:15 AM 41.0 °F - 41.0 °F 100% 29.85 in 3.0 mi Calm Calm - N/A   Overcast
1:55 AM 41.0 °F - 41.0 °F 100% 29.84 in 3.0 mi Calm Calm - N/A   Overcast
2:15 AM 41.0 °F - 41.0 °F 100% 29.84 in 3.0 mi Calm Calm - N/A   Overcast
2:35 AM 41.0 °F 39.0 °F 41.0 °F 100% 29.84 in 3.0 mi WSW 3.5 mph - N/A   Overcast
2:55 AM 39.2 °F 37.0 °F 39.2 °F 100% 29.82 in 3.0 mi WNW 3.5 mph - N/A   Overcast
3:15 AM 39.2 °F 37.0 °F 39.2 °F 100% 29.80 in 5.0 mi NW 3.5 mph - N/A   Overcast
3:35 AM 39.2 °F 35.9 °F 39.2 °F 100% 29.82 in - WNW 4.6 mph - N/A   Overcast
3:55 AM 41.0 °F 38.0 °F 41.0 °F 100% 29.83 in 3.0 mi WNW 4.6 mph - 0.01 in Rain Rain
4:15 AM 41.0 °F - 41.0 °F 100% 29.82 in - Calm Calm - 0.01 in   Unknown
4:35 AM 39.2 °F - 39.2 °F 100% 29.82 in 4.0 mi Calm Calm - 0.01 in   Overcast
5:15 AM 41.0 °F - 41.0 °F 100% 29.84 in 2.5 mi Calm Calm - 0.02 in Rain Rain
5:35 AM 41.0 °F - 41.0 °F 100% 29.83 in 3.0 mi Calm Calm - 0.03 in Rain Light Rain
5:55 AM 39.2 °F 37.0 °F 39.2 °F 100% 29.84 in 3.0 mi ESE 3.5 mph - 0.03 in   Overcast
6:15 AM 39.2 °F 37.0 °F 39.2 °F 100% 29.84 in 3.0 mi North 3.5 mph - 0.01 in   Overcast
6:35 AM 39.2 °F 33.6 °F 39.2 °F 100% 29.86 in 4.0 mi NW 8.1 mph - 0.01 in   Overcast
6:55 AM 41.0 °F 38.0 °F 41.0 °F 100% 29.86 in 4.0 mi NNW 4.6 mph - 0.01 in   Overcast
7:15 AM 41.0 °F 36.4 °F 41.0 °F 100% 29.88 in 4.0 mi NNW 6.9 mph - N/A   Overcast
7:35 AM 41.0 °F 38.0 °F 41.0 °F 100% 29.89 in 2.5 mi NNW 4.6 mph - N/A   Overcast
7:55 AM 41.0 °F 39.0 °F 41.0 °F 100% 29.87 in 3.0 mi North 3.5 mph - N/A   Overcast
8:15 AM 41.0 °F 39.0 °F 41.0 °F 100% 29.89 in 2.5 mi NNE 3.5 mph - N/A   Overcast
8:35 AM 41.0 °F 39.0 °F 41.0 °F 100% 29.91 in 2.5 mi WNW 3.5 mph - N/A   Overcast
8:55 AM 41.0 °F 36.4 °F 41.0 °F 100% 29.93 in 2.5 mi WNW 6.9 mph - N/A   Overcast
9:15 AM 41.0 °F 38.0 °F 41.0 °F 100% 29.92 in 2.5 mi WNW 4.6 mph - N/A   Overcast
9:35 AM 41.0 °F 37.1 °F 41.0 °F 100% 29.93 in 3.0 mi WNW 5.8 mph - N/A   Overcast
9:55 AM 42.8 °F 40.1 °F 42.8 °F 100% 29.94 in - WNW 4.6 mph - N/A   Overcast
10:15 AM 42.8 °F 40.1 °F 42.8 °F 100% 29.94 in 5.0 mi West 4.6 mph - N/A   Overcast
10:35 AM 42.8 °F 39.3 °F 42.8 °F 100% 29.94 in 7.0 mi NW 5.8 mph - N/A   Overcast
10:55 AM 42.8 °F 41.1 °F 42.8 °F 100% 29.94 in 7.0 mi NW 3.5 mph - N/A   Overcast
11:15 AM 42.8 °F - 42.8 °F 100% 29.94 in 10.0 mi Calm Calm - N/A   Overcast
11:35 AM 44.6 °F - 44.6 °F 100% 29.94 in 10.0 mi Calm Calm - N/A   Overcast
11:55 AM 44.6 °F - 42.8 °F 93% 29.95 in 10.0 mi Calm Calm - N/A   Overcast
12:15 PM 44.6 °F - 42.8 °F 93% 29.94 in 10.0 mi Calm Calm - N/A   Overcast
12:35 PM 46.4 °F 45.2 °F 42.8 °F 87% 29.93 in 10.0 mi North 3.5 mph - N/A   Overcast
12:55 PM 46.4 °F - 42.8 °F 87% 29.92 in 10.0 mi Calm Calm - N/A   Overcast
1:15 PM 46.4 °F 43.5 °F 42.8 °F 87% 29.92 in 10.0 mi SW 5.8 mph - N/A   Overcast
1:35 PM 46.4 °F 42.9 °F 42.8 °F 87% 29.92 in 10.0 mi SW 6.9 mph - N/A   Overcast
1:55 PM 50.0 °F - 42.8 °F 76% 29.92 in 10.0 mi WSW 5.8 mph - N/A   Mostly Cloudy
2:15 PM 50.0 °F - 42.8 °F 76% 29.91 in 10.0 mi SW 4.6 mph - N/A   Scattered Clouds
2:35 PM 50.0 °F - 41.0 °F 71% 29.90 in - West 4.6 mph - N/A   Clear
2:55 PM 51.8 °F - 41.0 °F 67% 29.89 in 10.0 mi WNW 4.6 mph - N/A   Clear
3:15 PM 51.8 °F - 41.0 °F 67% 29.89 in 10.0 mi Calm Calm - N/A   Clear
3:35 PM 53.6 °F - 41.0 °F 62% 29.90 in 10.0 mi Calm Calm - N/A   Clear
3:55 PM 51.8 °F - 41.0 °F 67% 29.90 in 10.0 mi Calm Calm - N/A   Mostly Cloudy
4:15 PM 53.6 °F - 41.0 °F 62% 29.90 in 10.0 mi East 3.5 mph - N/A   Mostly Cloudy
4:35 PM 53.6 °F - 41.0 °F 62% 29.90 in 10.0 mi ENE 4.6 mph - N/A   Scattered Clouds
4:55 PM 51.8 °F - 41.0 °F 67% 29.90 in 10.0 mi ENE 4.6 mph - N/A   Clear
5:15 PM 51.8 °F - 41.0 °F 67% 29.92 in 10.0 mi Calm Calm - N/A   Clear
5:35 PM 51.8 °F - 42.8 °F 71% 29.92 in 10.0 mi Calm Calm - N/A   Clear
5:55 PM 46.4 °F 45.2 °F 42.8 °F 87% 29.93 in 10.0 mi ENE 3.5 mph - N/A   Clear
6:15 PM 42.8 °F - 41.0 °F 93% 29.94 in 10.0 mi Calm Calm - N/A   Clear
6:35 PM 42.8 °F - 42.8 °F 100% 29.95 in 10.0 mi Calm Calm - N/A   Clear
6:55 PM 41.0 °F - 41.0 °F 100% 29.96 in 3.0 mi Calm Calm - N/A   Clear
7:15 PM 41.0 °F - 41.0 °F 100% 29.97 in 10.0 mi Calm Calm - N/A   Clear
7:35 PM 39.2 °F - 39.2 °F 100% 29.97 in 5.0 mi Calm Calm - N/A   Clear
7:55 PM 35.6 °F - 35.6 °F 100% 29.98 in 4.0 mi Calm Calm - N/A   Clear
8:15 PM 35.6 °F - 35.6 °F 100% 29.99 in - Calm Calm - N/A   Unknown
8:35 PM 35.6 °F - 35.6 °F 100% 30.00 in 2.0 mi Calm Calm - N/A   Clear
8:55 PM 35.6 °F 32.8 °F 35.6 °F 100% 30.01 in 5.0 mi ENE 3.5 mph - N/A   Clear
9:15 PM 42.8 °F 41.1 °F 33.8 °F 70% 30.02 in 10.0 mi West 3.5 mph - N/A   Clear
9:35 PM 44.6 °F 40.7 °F 30.2 °F 57% 30.02 in 10.0 mi WNW 6.9 mph - N/A   Clear
9:55 PM 42.8 °F 35.8 °F 32.0 °F 66% 30.04 in 10.0 mi NNW 13.8 mph 20.7 mph N/A   Clear
10:15 PM 42.8 °F 37.5 °F 32.0 °F 66% 30.06 in 10.0 mi North 9.2 mph 17.3 mph N/A   Clear
10:35 PM 41.0 °F 34.3 °F 32.0 °F 70% 30.06 in 10.0 mi North 11.5 mph 18.4 mph N/A   Clear
10:55 PM 41.0 °F 35.2 °F 32.0 °F 70% 30.07 in 10.0 mi NNW 9.2 mph - N/A   Clear
11:15 PM 37.4 °F 29.3 °F 30.2 °F 75% 30.08 in 10.0 mi North 12.7 mph 18.4 mph N/A   Clear
11:35 PM 37.4 °F 30.3 °F 28.4 °F 70% 30.09 in 10.0 mi North 10.4 mph 18.4 mph N/A   Clear
11:55 PM 35.6 °F 28.0 °F 26.6 °F 70% 30.10 in 10.0 mi NNW 10.4 mph - N/A   Clear